Location: Frizzleburg
(41.0764°N, 80.4548°W)
Time: 17:12:30
(UTC+00:00)

Cosmos 2082 Rocket - Pass Details

Date: 17 November 2019
Orbit: 833 x 854 km, 71.0° (Epoch: 10 December)

Event Time Altitude Azimuth Distance (km) Brightness Sun altitude
Exits shadow 09:31:07 29° 8° (N) 1,519 3.5 -30.2°
Drops below altitude 10° 09:33:53 10° 18° (NNE) 2,489 4.8 -29.6°
Sets 09:36:23 0° 21° (NNE) 3,426 5.6 -29.2°
